Regional Weather Roundup
Issued by NWS Charleston, WV

Home | Current Version | Previous Version | Graphics & Text | Print | Product List | Glossary On
Versions: 1 2 3 4 5 6 7 8 9 10 11 12 13 14 15 16 17 18 19 20 21 22 23 24 25 26 27 28 29 30 31 32 33 34 35 36 37 38 39 40 41 42 43 44 45 46 47 48 49 50
900
ASUS41 KRLX 122010
RWRRLX
West Virginia Regional Weather Roundup
National Weather Service Charleston WV
300 PM EST FRI FEB 12 2016

Note: "fair" indicates few or no clouds below 12,000 feet with no
significant weather and/or obstructions to visibility.

WVZ003-122100-
Northern Panhandle of West Virginia

CITY           SKY/WX    TMP DP  RH WIND       PRES   REMARKS
WHEELING       CLOUDY    21   6  52 SW10      29.98F WCI  10
$$

WVZ009-122100-
Northwest West Virginia

CITY           SKY/WX    TMP DP  RH WIND       PRES   REMARKS
PARKERSBURG    FLURRIES  24  12  60 W10       30.05F
$$

WVZ006-122100-
Western West Virginia

CITY           SKY/WX    TMP DP  RH WIND       PRES   REMARKS
HUNTINGTON     CLOUDY    32   8  36 W5        30.04F
$$

WVZ015-122100-
West Central West Virginia

CITY           SKY/WX    TMP DP  RH WIND       PRES   REMARKS
CHARLESTON     CLOUDY    29  11  47 VRB3      30.01F
$$

WVZ022-031-122100-
North Central West Virginia

CITY           SKY/WX    TMP DP  RH WIND       PRES   REMARKS
CLARKSBURG     LGT SNOW  21  15  78 NW5       30.00F
MORGANTOWN     LGT SNOW  20  12  71 VRB3      29.99F
$$

WVZ025-035-042-045-122100-
Southern West Virginia

CITY           SKY/WX    TMP DP  RH WIND       PRES   REMARKS
BECKLEY        LGT SNOW  25  19  78 W9        29.91F
LOGAN          CLOUDY    28  16  59 W7        29.98F
BLUEFIELD      FLURRIES  26  22  84 W13       29.89F
LEWISBURG      LGT SNOW  29  24  81 SW8       29.91F
$$

WVZ047-122100-
Northern Mountains of West Virginia

CITY           SKY/WX    TMP DP  RH WIND       PRES   REMARKS
ELKINS         LGT SNOW  24  15  68 VRB3      29.92F
$$

WVZ052-122100-
Eastern Panhandle of West Virginia

CITY           SKY/WX    TMP DP  RH WIND       PRES   REMARKS
MARTINSBURG    CLOUDY    28   7  41 MISG      30.01F
PETERSBURG     CLOUDY    31  16  53 CALM      29.95F
$$




USA.gov is the U.S. government's official web portal to all federal, state and local government web resources and services.